Theta_e
309 312 316 315 315 316 318 320 321 321 318 317 318 319 321 322 322 323 324 325 327 328 327 323 322 322 323 324 325 326 327 326 326 326 326 328 329 330 329 329 328 329 330 329
310 312 314 315 314 313 315 318 319 318 317 318 319 320 322 322 323 322 324 326 326 327 327 325 323 323 324 325 326 327 327 325 326 327 327 329 329 330 330 329 329 330 330 329
312 313 311 313 315 314 315 315 316 317 317 318 320 321 320 320 323 323 323 324 326 326 328 327 324 323 325 325 326 327 328 325 325 326 327 327 328 329 331 331 330 329 329 328
310 312 311 312 314 315 316 316 315 315 317 319 320 323 322 322 322 322 324 326 327 326 325 327 325 325 325 326 326 328 328 326 326 326 328 330 332 333 330 330 329 328 326 327
310 310 311 312 313 315 316 316 317 317 319 320 320 323 321 323 322 322 322 326 327 324 325 327 326 325 325 326 327 328 328 328 328 327 329 331 333 330 330 329 329 328 327 327
311 311 311 313 314 316 317 318 319 320 321 323 321 322 321 322 322 322 325 326 325 326 326 325 325 325 326 327 328 329 329 330 328 328 327 330 332 330 329 329 329 329 328 328
311 310 310 311 313 316 319 320 321 321 321 323 321 322 322 323 321 322 324 327 326 328 327 326 327 327 327 328 328 329 330 329 329 328 329 330 330 327 328 328 329 329 328 328
314 312 311 312 313 316 320 320 319 322 324 322 321 321 321 323 322 323 325 326 326 328 327 327 327 327 327 328 329 329 330 329 329 329 331 329 328 327 327 328 328 328 328 328
316 315 312 312 314 319 320 321 319 321 323 324 325 324 325 325 325 326 325 325 328 329 328 327 327 327 327 328 330 330 329 328 329 329 329 329 329 325 328 327 327 328 327 328
315 317 314 312 313 314 318 319 319 319 320 321 323 325 326 326 327 327 328 328 328 329 328 326 327 327 327 328 329 329 328 328 329 327 330 330 329 327 328 327 328 328 328 328
314 315 316 312 314 314 315 319 318 319 318 319 319 320 327 329 328 329 330 328 329 329 328 327 327 326 327 328 328 328 327 327 326 326 329 330 330 329 328 328 327 328 328 328
312 317 317 315 313 315 315 317 318 317 319 319 320 320 324 327 327 327 328 327 328 329 328 327 327 326 326 327 328 327 327 327 326 328 328 330 331 330 329 328 328 328 328 328
314 318 318 317 316 315 316 316 317 319 320 319 318 320 323 327 325 324 328 327 327 328 328 327 326 327 327 326 327 326 327 327 325 327 328 332 332 331 330 328 328 328 329 329
311 312 317 317 317 317 315 315 316 317 318 318 319 318 321 323 328 326 327 328 328 329 328 327 327 327 326 326 326 325 325 326 325 326 328 332 332 331 329 328 329 328 329 330
311 314 312 313 313 315 316 315 315 316 317 318 319 319 319 321 324 326 327 328 329 329 329 328 328 327 327 326 325 324 324 325 325 327 331 331 331 330 329 329 329 330 330 330
311 314 312 314 314 316 317 317 315 315 315 316 316 319 320 320 322 326 328 328 329 330 329 328 328 327 327 325 324 323 324 325 325 328 331 330 330 329 329 329 330 330 329 330
313 313 313 316 315 316 318 318 318 316 316 316 316 318 318 320 324 327 329 329 329 330 329 329 328 328 326 325 323 323 325 325 325 327 330 330 330 329 329 329 330 330 330 330
311 312 312 316 318 320 319 320 318 318 318 319 317 317 321 323 324 321 326 329 330 330 330 329 329 328 326 324 323 323 325 325 324 326 330 330 330 328 329 329 330 329 331 330
310 313 317 318 322 320 324 319 320 322 321 319 320 321 321 323 326 325 327 328 330 332 330 330 328 327 326 324 323 323 324 325 324 325 329 329 331 329 330 330 329 328 330 329
312 311 315 317 323 322 321 317 316 320 325 317 317 319 319 320 323 323 322 325 328 330 330 329 327 327 326 325 324 323 324 324 325 324 327 328 329 331 329 330 327 326 329 329
317 318 317 318 320 323 317 314 315 328 321 316 316 317 318 320 325 321 320 323 327 328 329 328 327 327 326 325 324 324 324 324 325 324 325 327 329 331 330 330 326 325 328 327
318 319 319 316 319 327 316 314 319 315 314 314 315 316 317 318 318 319 321 324 326 328 328 327 327 327 326 325 325 325 324 324 324 324 324 326 329 329 329 329 326 326 328 328
317 315 318 317 320 315 314 314 312 312 313 314 314 315 316 318 320 320 322 324 326 327 328 327 327 327 325 325 325 326 325 324 324 324 324 325 328 328 328 329 327 325 327 327
312 311 316 315 314 313 313 311 311 312 312 313 312 314 316 318 320 322 325 327 326 327 328 327 327 327 325 325 325 326 325 323 323 324 324 324 326 328 327 328 327 325 325 325
311 311 312 314 312 312 311 311 310 311 311 311 312 313 316 318 320 322 328 329 325 326 327 327 328 328 326 324 325 326 324 323 324 325 324 323 324 327 328 328 327 326 325 324
311 312 312 313 310 309 310 310 310 312 312 311 311 313 315 317 321 325 329 329 328 326 326 327 327 327 325 324 325 325 324 323 324 325 324 323 322 324 328 328 326 325 325 323
Wind_Speed
20 13 27 31 26 18 18 20 26 19 14 14 19 18 12 17 18 20 20 20 20 19 18 9 7 9 14 20 25 27 28 28 25 18 12 9 10 10 11 11 10 10 10 10
11 29 30 21 22 23 24 23 21 16 12 12 15 21 15 16 22 22 20 20 20 18 16 6 2 6 15 18 22 27 29 30 23 16 12 7 7 8 8 9 8 6 6 7
26 38 18 20 23 25 27 28 23 19 12 13 13 23 18 22 13 16 18 19 19 16 12 4 4 7 10 17 22 26 26 26 21 15 12 9 7 6 5 3 2 1 4 5
22 25 24 22 30 23 26 24 22 20 13 16 3 16 15 21 22 21 19 16 17 11 7 5 8 11 14 17 22 24 23 22 19 17 10 8 5 4 2 2 1 1 1 2
18 18 23 26 26 26 18 14 17 19 18 18 17 11 13 10 20 23 21 17 10 4 4 7 9 13 16 21 23 20 20 19 17 15 10 8 5 3 1 1 1 1 1 2
18 12 26 29 20 22 11 13 14 8 10 13 15 11 12 16 19 14 13 9 2 1 5 9 12 17 19 22 21 20 19 16 16 13 10 6 4 2 1 2 1 1 2 2
16 17 6 15 19 20 20 14 7 7 7 10 15 13 19 17 18 19 18 6 1 5 8 11 15 16 22 22 21 19 18 16 14 12 9 6 3 2 1 1 1 1 3 5
14 11 21 18 21 17 27 21 9 9 6 7 6 10 8 18 19 22 15 10 4 8 9 12 14 16 23 22 21 20 18 14 13 10 8 6 3 2 1 1 1 1 5 7
12 17 14 20 19 22 25 20 14 2 2 4 5 7 10 16 12 8 10 5 8 10 11 14 16 19 22 21 21 20 17 13 12 9 8 6 4 3 2 3 2 4 7 8
7 10 12 23 23 24 17 20 10 9 10 8 5 5 8 3 15 10 9 9 10 11 12 14 16 18 20 20 19 17 15 13 11 9 8 6 5 4 4 4 5 6 7 7
6 6 13 23 21 23 11 21 7 9 5 6 3 5 8 11 5 4 3 10 13 14 14 14 15 18 18 18 18 17 14 12 10 8 7 6 6 5 5 5 5 5 7 6
4 5 6 24 10 19 20 22 20 10 9 8 2 4 2 8 5 6 2 10 10 13 14 15 15 18 17 18 18 16 13 11 10 9 7 6 7 6 6 5 5 5 7 7
8 4 7 10 6 17 26 21 17 6 5 15 9 3 4 3 3 1 6 12 12 13 15 15 15 14 17 18 18 15 13 11 9 9 7 7 7 6 6 7 6 6 7 8
8 3 7 8 7 1 24 23 21 14 9 10 17 12 17 8 1 6 6 8 12 14 16 16 16 15 17 19 18 16 12 10 10 9 7 8 7 7 7 8 7 7 9 9
4 2 5 13 11 9 5 23 23 21 16 12 9 23 20 16 5 2 6 12 12 15 17 17 17 15 16 18 17 16 13 12 12 10 9 8 8 8 9 9 8 8 10 9
2 2 9 9 10 8 8 7 11 26 23 18 13 14 12 13 7 4 8 14 16 16 16 17 17 17 15 19 19 17 15 14 13 11 11 10 10 9 11 10 8 8 9 10
1 4 3 7 3 5 11 14 9 9 21 20 21 27 11 14 13 8 9 16 18 18 19 20 20 18 19 21 20 19 17 15 14 13 12 11 10 10 12 12 10 8 8 9
3 1 2 2 0 10 2 11 11 15 3 7 17 10 7 13 18 18 11 17 19 17 18 18 17 19 23 22 21 19 18 16 15 14 14 13 11 11 12 11 9 8 8 9
9 2 2 3 5 3 5 9 5 2 4 10 8 10 12 12 14 17 11 16 20 22 20 19 25 25 24 24 23 21 19 17 17 16 16 17 15 12 12 11 9 7 9 9
7 9 5 3 5 7 5 12 4 1 6 11 10 10 12 12 9 11 13 13 11 14 16 19 26 25 24 24 24 23 21 19 18 18 17 17 16 15 14 12 10 8 9 10
1 3 7 6 2 3 12 12 5 9 3 13 12 11 11 8 10 20 19 14 9 13 15 26 27 26 27 27 26 24 22 21 20 18 17 17 15 16 15 13 11 11 11 12
1 2 3 3 4 4 15 3 3 6 8 11 12 11 14 15 18 18 17 14 11 14 19 26 25 25 27 28 28 26 24 23 20 19 19 18 15 15 15 14 12 12 13 13
1 2 1 2 3 7 10 3 7 6 9 11 12 14 14 16 16 16 15 14 10 14 15 23 26 26 26 29 30 27 26 24 22 20 20 20 17 16 15 16 15 13 12 13
1 1 1 3 3 10 8 8 10 12 12 14 14 14 14 16 16 16 14 12 11 13 17 25 23 23 25 29 30 31 28 27 24 22 21 20 20 17 16 15 16 15 15 13
2 2 4 3 6 8 3 11 15 17 16 17 17 16 14 16 16 15 14 12 11 13 20 26 25 23 29 32 31 27 27 28 26 23 21 21 20 22 18 16 16 16 16 16
4 4 3 2 5 6 12 13 18 17 19 19 20 21 18 17 17 17 14 12 11 14 21 21 23 21 28 31 32 31 30 31 28 24 22 23 22 21 20 19 15 19 17 20
Wind_Direction
188 196 220 211 215 235 252 252 246 243 224 245 255 272 276 292 292 285 287 282 277 272 282 288 292 216 190 187 182 172 166 172 171 169 171 202 227 249 255 262 274 269 240 229
176 221 219 222 218 224 231 244 243 250 247 253 281 277 288 282 280 280 280 285 277 283 282 281 183 205 186 176 173 166 163 169 173 173 177 186 215 240 258 273 281 265 237 233
198 224 202 201 211 214 224 230 237 244 264 263 278 279 275 278 280 280 275 274 274 269 283 246 154 168 188 168 165 159 160 168 170 173 177 199 228 253 268 268 282 283 249 243
227 224 195 204 218 206 231 221 242 246 254 260 246 284 274 283 284 277 280 275 268 264 238 173 152 163 172 161 155 153 159 163 169 173 174 187 208 246 256 288 300 290 237 203
219 199 200 206 208 203 236 221 229 236 240 264 257 269 281 276 275 275 274 268 271 302 211 157 159 156 160 154 152 152 153 160 165 173 176 184 209 246 244 249 232 204 144 158
224 204 195 208 198 199 184 216 210 222 237 247 252 243 277 265 257 275 267 251 345 359 127 136 145 146 150 152 150 151 154 159 163 172 179 189 215 202 202 235 229 224 185 155
220 225 209 194 194 191 189 179 176 210 218 255 249 235 244 262 249 255 262 288 29 136 138 149 150 149 151 154 154 156 160 157 167 177 185 200 197 188 226 261 267 214 162 167
209 193 205 190 194 187 188 185 189 194 197 225 165 212 248 242 255 245 250 280 195 154 151 149 151 153 155 157 159 163 160 159 172 177 185 184 174 167 154 356 49 135 164 158
212 224 189 184 180 166 191 203 192 213 37 254 167 253 283 248 256 237 237 210 179 158 159 152 156 164 160 160 168 165 160 166 169 175 182 173 172 166 147 67 105 142 142 148
279 232 204 183 185 202 188 174 190 212 213 233 193 261 249 240 226 213 202 194 163 160 150 159 166 167 165 165 167 162 165 168 170 175 176 173 175 167 138 111 127 136 137 144
282 270 174 171 201 186 178 187 188 192 220 209 243 239 209 238 218 196 183 165 167 154 159 165 170 168 163 165 165 164 164 165 166 175 174 170 167 168 144 134 137 140 132 141
320 302 230 198 189 193 197 188 183 188 192 211 247 250 21 256 271 251 190 136 147 158 159 165 170 164 167 169 165 166 164 171 168 168 171 164 160 159 149 145 147 137 139 143
343 237 224 148 163 201 200 194 190 178 156 199 202 234 175 260 264 144 160 140 155 165 155 166 171 169 174 171 170 167 168 172 170 167 177 156 158 147 144 146 148 132 134 137
331 255 282 204 171 128 199 195 196 194 198 191 216 218 263 278 354 91 108 148 164 171 161 170 171 173 179 173 174 168 170 174 167 162 166 154 147 141 141 142 144 137 134 134
20 270 313 284 276 280 171 198 200 202 207 213 204 224 237 267 295 50 181 158 175 173 171 173 172 177 179 171 177 169 172 174 166 157 160 147 141 132 133 134 135 133 131 131
360 343 337 255 236 248 250 200 214 212 223 233 247 251 237 274 289 229 181 172 187 184 173 173 176 180 179 175 178 170 171 172 167 159 159 147 138 133 136 132 130 130 132 133
243 344 335 222 338 286 250 223 201 202 227 226 228 240 256 280 273 250 192 186 197 183 175 178 180 181 180 179 177 173 174 170 168 163 161 152 143 138 139 139 136 132 136 140
228 264 267 254 245 226 192 40 230 217 160 257 241 255 318 294 300 292 248 203 197 189 175 179 180 181 182 177 179 172 173 172 170 169 166 160 149 141 142 139 137 138 137 142
225 213 251 216 202 82 49 23 347 324 118 16 334 322 319 319 307 277 239 212 208 188 180 177 178 178 175 176 177 172 174 176 175 176 174 171 161 154 150 144 141 135 140 140
205 220 263 189 217 201 20 338 323 160 170 4 349 335 330 330 244 251 2 346 248 214 172 170 172 174 174 178 175 172 177 180 183 181 180 177 174 175 165 153 147 140 134 137
149 129 201 228 270 117 353 333 178 188 38 339 337 327 317 294 287 313 317 316 294 201 191 166 169 174 180 174 175 177 180 187 187 182 181 180 180 179 174 158 153 144 136 136
127 185 168 212 224 168 359 5 82 353 330 335 332 326 313 301 298 300 301 299 291 198 176 178 169 176 177 176 176 180 186 188 183 180 180 181 181 177 179 168 156 151 146 139
127 16 32 289 32 341 345 16 49 357 329 337 334 327 319 309 306 303 297 291 272 204 186 189 174 170 178 180 181 182 189 183 180 180 182 180 180 180 180 176 166 158 160 155
14 345 290 316 40 326 322 40 12 356 342 335 336 331 326 315 315 306 298 284 254 203 191 180 187 173 177 184 186 189 182 182 181 182 184 181 180 181 181 180 180 175 174 173
13 296 340 297 330 330 219 357 344 339 344 341 336 337 336 329 321 311 302 287 254 204 193 183 189 183 179 182 187 183 184 181 182 183 183 185 186 185 183 186 186 192 193 187
357 3 5 336 320 288 295 315 324 328 334 335 335 335 339 341 330 321 305 291 262 205 190 189 188 190 179 185 185 182 183 184 181 183 183 186 189 189 190 188 190 196 202 207